Regional Weather Roundup
Issued by NWS

Home | Current Version | Previous Version | Graphics & Text | Print | Product List | Glossary On
Versions: 1 2 3 4 5 6 7 8 9 10 11 12 13 14 15 16 17 18 19 20 21 22 23 24 25 26 27 28
000
ASUS45 KCYS 251910
RWRWY

WYOMING REGIONAL WEATHER ROUNDUP
NATIONAL WEATHER SERVICE CHEYENNE WY
100 PM MDT SAT OCT 25 2014

NOTE:  "FAIR" INDICATES FEW OR NO CLOUDS BELOW 12,000 FEET
WITH NO SIGNIFICANT WEATHER AND/OR OBSTRUCTIONS TO VISIBILITY.

WYZ001-252000-
YELLOWSTONE NATIONAL PARK

CITY           SKY/WX    TMP DP  RH WIND       PRES   REMARKS
LK YELLOWSTONE   N/A     59  25  27 CALM      30.16
W YELLOWSTONE  NOT AVBL

$$
WYZ002>013-054>058-071-098>099-252000-
NORTHERN WYOMING

CITY           SKY/WX    TMP DP  RH WIND       PRES   REMARKS
JACKSON        SUNNY     61  27  27 S7        30.11F
CODY           SUNNY     70  34  26 NE6       29.98
GREYBULL       SUNNY     64  32  30 CALM      29.96F
WORLAND        SUNNY     73  30  20 CALM      29.97F
SHERIDAN       SUNNY     63  35  35 VRB3      29.96F
BUFFALO        SUNNY     77  21  12 S14       30.01F
GILLETTE       SUNNY     68  35  29 SE18G25   30.03F
HULETT         FAIR      70  32  24 SW12      30.05
NEWCASTLE      FAIR      64  30  27 SE7       30.10

$$
WYZ014>020-022>026-101>103-252000-
CENTRAL WYOMING

CITY           SKY/WX    TMP DP  RH WIND       PRES   REMARKS
BIG PINEY      SUNNY     62  24  23 S12       30.18F
PINEDALE       CLEAR     63  25  23 S13       30.19
DUBOIS         FAIR      63  21  20 E8        30.12F
LANDER         SUNNY     64  25  22 VRB5      30.05F
RIVERTON       SUNNY     63  24  22 NE5       30.07F
CASPER         SUNNY     74  27  17 SW17G28   30.10F
DOUGLAS        SUNNY     76  28  17 CALM      30.09F

$$
WYZ021-027>030-104>119-252000-
SOUTHERN WYOMING

CITY           SKY/WX    TMP DP  RH WIND       PRES   REMARKS
EVANSTON       SUNNY     70  25  18 SW21G30   30.16F
KEMMERER       CLEAR     64  23  20 S8        30.19F
FORT BRIDGER   FAIR      64  25  22 E8        30.20F
ROCK SPRINGS   SUNNY     66  32  28 CALM      30.18F
RAWLINS        SUNNY     71  24  17 SW24G31   30.21F
SARATOGA       FAIR      70  23  17 SW17      30.25F
LARAMIE        SUNNY     70  18  13 S14G23    30.23F
CHEYENNE       SUNNY     73  19  13 S21G26    30.19F
TORRINGTON     SUNNY     70  33  25 SE6       30.08F
PINE BLUFFS    FAIR      79  23  12 SW7       30.15F

$$



USA.gov is the U.S. government's official web portal to all federal, state and local government web resources and services.